COSMOS 1235

Satellite information

Favourite Embed

Satellite Type and Status

PAYLOADIN ORBIT

Key statistics

Satellite COSMOS 1235 at a glance.

Uptime

16433

Days in orbit

Revolutions

≈ 12.6

Per day

Orbit

LEO

Low Earth Orbit

Inclination

74.0

Latest

Satellite identification and parameters

Extended collection of information and parameters for COSMOS 1235.

Object identification

Identified? True

Debris? False

Object name: COSMOS 1235

International designator: 1980-102H

Object number (NORAD): 12114

Object ID (CCSDS): 12114

Country: COMMONWEALTH OF INDEPENDENT STATES (CIS)

Current information (Y/N): Y

RCS size: MEDIUM

Orbital parameters

Period: 114.629 minutes

Inclination: 73.9945 deg

SMA: 7816.678 km

Apoapsis: 1463.699 km

Periapsis: 1413.387 km

RAAN: 268.8907 deg

Eccentricy: 0.00321825

Argument of periapsis: 9.8994 deg

Mean anomaly: 53.6831 deg

Mean motion: 12.56230848 rev/day

Mean motion (dot): -0.00000006 rev/day2

B* drag term: 0.000063134273 1/REarth

Two-line elements (TLE)

Creation date: Dec. 20, 2025, 3:40 a.m.

Reference frame: TEME

Reference center: EARTH

Epoch: Dec. 19, 2025, 9:16 p.m. UTC

TLE line 0: 0 COSMOS 1235

TLE line 1: 1 12114U 80102H 25353.88633563 -.00000006 00000-0 63134-4 0 9998

TLE line 2: 2 12114 73.9945 268.8907 0032182 9.8994 53.6831 12.56230848 63074

Live tracking on map

Real-time ground track for satellite COSMOS 1235.

In-orbit conjunctions

A list of the most updated potential collisions computed for object COSMOS 1235.

Target Orbit TCA Probability of collision Miss distance Type
DIAMANT R/B LEO 2025-12-05 15:36:27 0.000189255 687.0 (m) ROCKET BODY
DELTA 1 DEB SSO 2025-04-10 02:57:11 0.0008207048 117.0 (m) DEBRIS

Associated space launch

Military communications satellites

COSMOS 1235 was lifted into orbit during the mission ‘Kosmos-3M | Strela-1M 201-208’, on board a Kosmos-3M space rocket.

The launch took place on Dec. 23, 1980, 10:48 p.m. from 132/1 (132L).

For more information about the launch, click the button.

Launch to space Kosmos-3M | Strela-1M 201-208
Kosmos-3M | Strela-1M 201-208

Agency: N/A

Status: Launch Successful

Launch date: Dec. 23, 1980, 10:48 p.m. UTC

Rocket: Kosmos-3M

Launch pad: 132/1 (132L)

Location: Plesetsk Cosmodrome, Russian Federation

...

Latest news about this satellite

There are no fresh news available about this satellite. Check back as we update our databases every day.


Newsletter sign-up

Weekly statistics, charts and insights to help you stay on top of the space industry.